Погода в Делемоне

Швейцария     47°21′41″N   7°20′31″E
темп.,
°C
ветер,
м/с
пор.,
м/с
влажн.,
%
обл.,
%
осадки,
мм/ч
давл.,
гПа
погр.,
м
18 января, пн
пн1801:00−4з229694 0.7 102927
04:00−2з1298100 0.4 1029125
07:00−4зюз229694 0.6 103030
10:00−3зюз129633 0.0 103080
13:000з129743 0.1 1029467
16:000зсз129577 0.1 1028404
19:00−5зюз129489 0.1 102921
22:00−5юз1293100 0.0 102822
19 января, вт
вт1901:00−5юз239699 0.0 102759
04:00−5ююз239494 0.0 102582
07:00−5ююз348995 0.0 1024106
10:00−1юз378599 0.0 1022236
13:00+1юз369499 0.0 1020252
16:00+1юз3690100 0.0 1018168
19:00−1юз358182 0.0 1019114
22:00−1юз378267 0.0 1018161
20 января, ср
ср2001:00−1ююз398384 0.0 1017227
04:00−1юз3981100 0.0 1015216
07:00−2ююз3118457 0.0 1014262
10:00+1ююз311891 0.0 1012321
13:00+2ю27985 0.0 1010283
16:00+1ю229394 0.0 100747
19:00−1ю228594 0.0 100824
22:00−2ю228677 0.0 100724
21 января, чт
чт2101:00−2ю229089 0.0 100638
04:00−1ююз3390100 0.0 1005112
07:00−1ю31489100 0.0 1005356
10:00+1ююз4179160 0.0 1004671
13:00+3юз4159951 0.4 1004852
16:00+3ююз51699100 2.3 1003898
19:00+2ю31299100 2.4 1002369
22:00+2ю31599100 0.1 1001680
22 января, пт
пт2201:00+3юз515100100 2.5 1000955
04:00+2ююз41499100 2.5 999831
07:00+2ююз41499100 2.6 999809
10:00+2ююз6169999 0.4 9981155
13:00+1з51291100 2.9 1000950
16:00+1юз2791100 0.0 1001380
19:00−2юз238992 0.0 100159
22:00−1ю129487 0.0 100124